User: anonymous   Login
Location: Unspecified
(0.0000°N, 0.0000°E)
Time: 11:50:51
(UTC+00:00)
Language:

N. Korean satellite - Orbit

View from above orbital plane
View from above orbital plane
View from above satellite
View from above satellite

Ground track
Ground track

The orbit data is extracted from the following two-line orbital elements,

1 39026U 12072A   16273.10061399  .00004853  00000-0  19699-3 0  9997
2 39026  97.2429 293.8281 0042578  23.1278 337.1864 15.24212460210201
Epoch (UTC): 29 September 2016 02:24:53
Eccentricity: 0.0042578
inclination: 97.2429°
perigee height: 464 km
apogee height: 522 km
right ascension of ascending node: 293.8281°
argument of perigee: 23.1278°
revolutions per day: 15.24212460
mean anomaly at epoch: 337.1864°
orbit number at epoch: 21020

The dashed part of the orbit path shows where the satellite is in the earth's shadow,  

DLR